THORAD DELTA 1 DEB, 8164

Orbit data source: Space-Track

THORAD DELTA 1 DEB, 8164 is space debris in SSO originally from a launch on Fri, 15 Nov 1974 UTC launched from the Air Force Western Test Range (AFWTR). Debris objects in space refer to the collection of defunct objects orbiting the Earth. Examples of debris include non-operational satellites, rocket bodies, and fragments generated from explosions, collisions, or faulty payload assembly.

Loading next visibility...
Identifier
8164, 1974-089AE
Orbit
SSO
Last TLE update
22 hours ago
Origin
Manufacturer
Unknown
Mission
Spacecraft
Bus & Motor
Unknown
Mass
Unknown
Launch date (UTC)
1974-11-15 (50 years ago)
Launch vehicle
Unknown
Launch site
Air Force Western Test Range (AFWTR)
Object type
Payload
Rocket body
Debris
Shape & HBR
Unknown
Radar Cross Section
Medium (>0.1 m² and <1 m²)

Expand to show TLE details & history

TLE from 22 hours ago
0 THORAD DELTA 1 DEB
1  8164U 74089AE  25114.89549519 -.00000032  00000-0  72557-4 0  9996
2  8164 101.5786 256.1611 0120882  48.1246 105.8686 12.28966206263486
Epoch: 2025-04-24T21:29Z
Definitive object data (Epoch: 2025-04-24T21:29:30.784Z)
Latitude
24.16962°
Longitude
-94.12753°
Altitude
1,583.62 km
Speed
7.067 km/s
True Right ascension
05h 25m 38s
True Declination
24° 03' 17"
Sunlit
Object was in daylight at TLE epoch
Visualization TLE readout
Latitude
-43.33561°
Longitude
92.58236°
Altitude
1,570.02 km
Speed
7.082 km/s
Apparent Right ascension
16h 37m 21s
Apparent Declination
-43° 30' 37"
Sunlit
Object is in daylight
Visualization observer readout
Local Sidereal Time
03:07:54
Azimuth
250.505° W
Elevation
-72.981°
Doppler factor
1
Orbital elements
Apogee altitude
1,647.143 km
Perigee altitude
1,455.438 km
Semi-major axis
7,929.427 km
Eccentricity
0.0120882
Inclination
101.5786°
RAAN
256.1611°
Arg. of periapsis
48.1246°
True anomaly
107.19542°
Mean anomaly
105.8686°
Eccentric anomaly
106.53257°
Mean motion
3.07383 °/min
BSTAR
0.000072557
Orbital period
117.12 mins
Loading maneuver chart data...
Loading SW <> Apogee altitude chart data...
Loading historical data...
Loading historical data...
Loading historical data...
Loading historical data...
Loading historical data...
Loading historical data...
Loading historical data...

THORAD DELTA 1 DEB Visibility forecast

Observer location: undefined°, undefined°

Span
Click to sort rows by Start time (UTC) header in descending order
Start Az.
Max El. time (UTC)
Max El. Az.
Max El.
End time (UTC)
End Az.
12 mins2025-04-25 20:46:04.200Z46.448° ENE2025-04-25 20:52:04.200Z93.384° ESE21.949°2025-04-25 20:58:04.200Z139.853° SSE
15 mins2025-04-25 22:41:04.200Z12.182° NNE2025-04-25 22:48:04.200Z271.758° WNW43.908°2025-04-25 22:56:04.200Z208.318° SW
8 mins2025-04-26 00:38:04.200Z336.478° NNW2025-04-26 00:41:04.200Z313.07° NW16.885°2025-04-26 00:46:04.200Z276.247° WNW
13 mins2025-04-26 07:58:04.200Z119.625° SE2025-04-26 08:04:04.200Z65.242° ENE31.299°2025-04-26 08:11:04.200Z359.742° N
14 mins2025-04-26 09:53:04.200Z191.133° SSW2025-04-26 09:59:04.200Z256.14° W37.016°2025-04-26 10:07:04.200Z332.089° NNW
|